Location: Sumter
(33.9203°N, 80.3401°W)
Time: 21:40:52
(UTC+00:00)

ISS - Pass Details

Date: 24 August 2022
Orbit: 414 x 417 km, 51.6° (Epoch: 24 September)

Event Time Altitude Azimuth Distance (km) Brightness Sun altitude
Exits shadow 09:37:06 31° 267° (W) 757 -3.0 -15.0°
Maximum altitude 09:38:16 46° 320° (NW) 570 -3.3 -14.8°
Drops below altitude 10° 09:41:31 10° 35° (NE) 1,497 0.0 -14.2°
Sets 09:43:40 0° 42° (NE) 2,362 1.3 -13.8°
